When you browse on this site, cookies collect data to enhance your experience and personalize the content and advertising you see.
Visit our Privacy Policy to learn more. By continuing to use the site, you agree to this use of cookies and data.
  • En España
  • Lista de países
  • Para 7 días
  • Temperatura del agua
  • Mapa Satelital
  • El tiempo en el mapa
  • Informadores
  • user-avatar
    Iniciar sesión

    Tiempo cada hora Ties

    Hoy, 19 Febrero, Martes

    Tiempo Temperatura Precipitaciones Viento Presión Humedad
    00:00 +22°C° 0 mm 4 mps 750 mmHg 46%
    01:00 +22°C° 0 mm 4 mps 750 mmHg 46%
    02:00 +22°C° 0 mm 5 mps 750 mmHg 47%
    03:00 +22°C° 0 mm 5 mps 749 mmHg 50%
    04:00 +22°C° 0 mm 5 mps 749 mmHg 54%
    05:00 +21°C° 0 mm 5 mps 749 mmHg 57%
    06:00 +21°C° 0 mm 5 mps 749 mmHg 58%
    07:00 +22°C° 0 mm 5 mps 750 mmHg 58%
    08:00 +22°C° 0 mm 6 mps 750 mmHg 59%
    09:00 +25°C° 0 mm 5 mps 750 mmHg 49%
    10:00 +27°C° 0 mm 5 mps 750 mmHg 39%
    11:00 +29°C° 0 mm 4 mps 751 mmHg 29%
    12:00 +32°C° 0 mm 4 mps 750 mmHg 25%
    13:00 +33°C° 0 mm 4 mps 749 mmHg 21%
    14:00 +34°C° 0 mm 4 mps 749 mmHg 17%
    15:00 +33°C° 0 mm 4 mps 748 mmHg 19%
    16:00 +32°C° 0 mm 5 mps 748 mmHg 21%
    17:00 +30°C° 0 mm 5 mps 748 mmHg 23%
    18:00 +28°C° 0 mm 5 mps 748 mmHg 27%
    19:00 +26°C° 0 mm 5 mps 749 mmHg 32%
    20:00 +23°C° 0 mm 4 mps 749 mmHg 37%
    21:00 +22°C° 0 mm 4 mps 749 mmHg 39%
    22:00 +22°C° 0 mm 4 mps 750 mmHg 42%
    23:00 +22°C° 0 mm 4 mps 750 mmHg 44%

    Mañana, 20 Febrero, Miércoles

    Tiempo Temperatura Precipitaciones Viento Presión Humedad
    00:00 +21°C° 0 mm 4 mps 749 mmHg 48%
    01:00 +21°C° 0 mm 4 mps 749 mmHg 51%
    02:00 +20°C° 0 mm 4 mps 749 mmHg 54%
    03:00 +20°C° 0 mm 4 mps 749 mmHg 59%
    04:00 +19°C° 0 mm 4 mps 749 mmHg 63%
    05:00 +19°C° 0 mm 4 mps 748 mmHg 67%
    06:00 +20°C° 0 mm 4 mps 749 mmHg 59%
    07:00 +21°C° 0 mm 4 mps 749 mmHg 50%
    08:00 +22°C° 0 mm 4 mps 750 mmHg 41%
    09:00 +26°C° 0 mm 4 mps 750 mmHg 30%
    10:00 +29°C° 0 mm 4 mps 751 mmHg 19%
    11:00 +34°C° 0 mm 4 mps 751 mmHg 8%
    12:00 +35°C° 0 mm 3 mps 750 mmHg 8%
    13:00 +36°C° 0 mm 3 mps 749 mmHg 8%
    14:00 +37°C° 0 mm 2 mps 749 mmHg 8%
    15:00 +36°C° 0 mm 3 mps 749 mmHg 10%
    16:00 +35°C° 0 mm 4 mps 749 mmHg 13%
    17:00 +33°C° 0 mm 5 mps 748 mmHg 15%
    18:00 +30°C° 0 mm 5 mps 749 mmHg 21%
    19:00 +28°C° 0 mm 4 mps 749 mmHg 26%
    20:00 +25°C° 0 mm 4 mps 750 mmHg 31%
    21:00 +25°C° 0 mm 4 mps 750 mmHg 35%
    22:00 +23°C° 0 mm 4 mps 750 mmHg 38%
    23:00 +23°C° 0 mm 4 mps 751 mmHg 42%

    Pasado mañana, 21 Febrero, Jueves

    Tiempo Temperatura Precipitaciones Viento Presión Humedad
    00:00 +23°C° 0 mm 4 mps 750 mmHg 43%
    01:00 +22°C° 0 mm 4 mps 750 mmHg 45%
    02:00 +22°C° 0 mm 5 mps 749 mmHg 46%
    03:00 +22°C° 0 mm 4 mps 749 mmHg 46%
    04:00 +21°C° 0 mm 4 mps 749 mmHg 45%
    05:00 +21°C° 0 mm 4 mps 749 mmHg 45%
    06:00 +22°C° 0 mm 4 mps 750 mmHg 37%
    07:00 +23°C° 0 mm 4 mps 750 mmHg 30%
    08:00 +25°C° 0 mm 4 mps 751 mmHg 23%
    09:00 +28°C° 0 mm 4 mps 751 mmHg 18%
    10:00 +33°C° 0 mm 4 mps 752 mmHg 13%
    11:00 +36°C° 0 mm 4 mps 752 mmHg 8%
    12:00 +37°C° 0 mm 4 mps 751 mmHg 9%
    13:00 +37°C° 0 mm 3 mps 750 mmHg 9%
    14:00 +38°C° 0 mm 3 mps 750 mmHg 10%
    15:00 +37°C° 0 mm 4 mps 750 mmHg 13%
    16:00 +35°C° 0 mm 5 mps 750 mmHg 16%
    17:00 +33°C° 0 mm 6 mps 749 mmHg 19%
    18:00 +30°C° 0 mm 6 mps 750 mmHg 24%
    19:00 +28°C° 0 mm 5 mps 751 mmHg 29%
    20:00 +26°C° 0 mm 5 mps 751 mmHg 35%
    21:00 +25°C° 0 mm 5 mps 751 mmHg 36%
    22:00 +25°C° 0 mm 5 mps 752 mmHg 37%
    23:00 +25°C° 0 mm 5 mps 752 mmHg 39%

    22 Febrero, Viernes

    Tiempo Temperatura Precipitaciones Viento Presión Humedad
    00:00 +25°C° 0 mm 5 mps 751 mmHg 39%
    01:00 +23°C° 0 mm 5 mps 751 mmHg 39%
    02:00 +23°C° 0 mm 5 mps 750 mmHg 39%
    03:00 +23°C° 0 mm 5 mps 750 mmHg 39%
    04:00 +23°C° 0 mm 5 mps 750 mmHg 39%
    05:00 +23°C° 0 mm 5 mps 750 mmHg 38%
    06:00 +25°C° 0 mm 5 mps 751 mmHg 34%
    07:00 +26°C° 0 mm 5 mps 751 mmHg 30%
    08:00 +27°C° 0 mm 5 mps 752 mmHg 26%
    09:00 +30°C° 0 mm 5 mps 752 mmHg 21%
    10:00 +34°C° 0 mm 5 mps 752 mmHg 16%
    11:00 +37°C° 0 mm 5 mps 752 mmHg 11%
    12:00 +37°C° 0 mm 5 mps 752 mmHg 11%
    13:00 +39°C° 0 mm 5 mps 751 mmHg 11%
    14:00 +40°C° 0 mm 5 mps 750 mmHg 12%
    15:00 +38°C° 0 mm 6 mps 750 mmHg 15%
    16:00 +35°C° 0 mm 7 mps 749 mmHg 19%
    17:00 +32°C° 0 mm 7 mps 749 mmHg 23%
    18:00 +30°C° 0 mm 7 mps 750 mmHg 27%
    19:00 +28°C° 0 mm 7 mps 750 mmHg 32%
    20:00 +26°C° 0 mm 7 mps 751 mmHg 36%
    21:00 +24°C° 0 mm 7 mps 751 mmHg 38%
    22:00 +24°C° 0 mm 7 mps 751 mmHg 39%
    23:00 +24°C° 0 mm 7 mps 751 mmHg 40%

    23 Febrero, Sábado

    Tiempo Temperatura Precipitaciones Viento Presión Humedad
    00:00 +23°C° 0 mm 7 mps 751 mmHg 41%
    01:00 +23°C° 0 mm 7 mps 751 mmHg 42%
    02:00 +23°C° 0 mm 7 mps 750 mmHg 43%
    03:00 +23°C° 0 mm 7 mps 750 mmHg 42%
    04:00 +23°C° 0 mm 7 mps 750 mmHg 42%
    05:00 +22°C° 0 mm 7 mps 750 mmHg 42%
    06:00 +23°C° 0 mm 7 mps 750 mmHg 37%
    07:00 +24°C° 0 mm 7 mps 751 mmHg 32%
    08:00 +26°C° 0 mm 7 mps 751 mmHg 27%
    09:00 +30°C° 0 mm 7 mps 751 mmHg 20%
    10:00 +34°C° 0 mm 7 mps 751 mmHg 14%
    11:00 +39°C° 0 mm 6 mps 751 mmHg 8%
    12:00 +40°C° 0 mm 6 mps 750 mmHg 8%
    13:00 +41°C° 0 mm 6 mps 749 mmHg 9%
    14:00 +42°C° 0 mm 5 mps 748 mmHg 9%
    15:00 +40°C° 0 mm 6 mps 748 mmHg 11%
    16:00 +39°C° 0 mm 6 mps 748 mmHg 12%
    17:00 +38°C° 0 mm 7 mps 748 mmHg 14%
    18:00 +34°C° 0 mm 7 mps 749 mmHg 20%
    19:00 +30°C° 0 mm 7 mps 749 mmHg 26%
    20:00 +27°C° 0 mm 6 mps 749 mmHg 31%
    21:00 +27°C° 0 mm 6 mps 750 mmHg 32%
    22:00 +27°C° 0 mm 6 mps 750 mmHg 34%
    23:00 +26°C° 0 mm 6 mps 750 mmHg 35%

    24 Febrero, Domingo

    Tiempo Temperatura Precipitaciones Viento Presión Humedad
    00:00 +26°C° 0 mm 6 mps 750 mmHg 33%
    01:00 +26°C° 0 mm 6 mps 749 mmHg 31%
    02:00 +26°C° 0 mm 5 mps 749 mmHg 30%
    03:00 +25°C° 0 mm 5 mps 749 mmHg 25%
    04:00 +25°C° 0 mm 5 mps 749 mmHg 20%
    05:00 +25°C° 0 mm 5 mps 749 mmHg 15%
    06:00 +26°C° 0 mm 5 mps 749 mmHg 13%
    07:00 +27°C° 0 mm 6 mps 750 mmHg 11%
    08:00 +27°C° 0 mm 7 mps 750 mmHg 10%
    09:00 +30°C° 0 mm 7 mps 750 mmHg 9%
    10:00 +34°C° 0 mm 6 mps 750 mmHg 8%
    11:00 +38°C° 0 mm 6 mps 751 mmHg 7%
    12:00 +39°C° 0 mm 5 mps 750 mmHg 8%
    13:00 +39°C° 0 mm 5 mps 749 mmHg 8%
    14:00 +40°C° 0 mm 4 mps 748 mmHg 9%
    15:00 +39°C° 0 mm 5 mps 748 mmHg 10%
    16:00 +39°C° 0 mm 5 mps 748 mmHg 11%
    17:00 +38°C° 0 mm 6 mps 748 mmHg 11%
    18:00 +34°C° 0 mm 6 mps 748 mmHg 17%
    19:00 +30°C° 0 mm 6 mps 749 mmHg 23%
    20:00 +27°C° 0 mm 5 mps 749 mmHg 28%
    21:00 +26°C° 0 mm 5 mps 749 mmHg 30%
    22:00 +26°C° 0 mm 5 mps 749 mmHg 32%
    23:00 +25°C° 0 mm 5 mps 749 mmHg 34%
    Mostrar más